Flag for Turkey Weather past 2 weeks in Bursa, Turkey

Now
67 °F

Clear.


Feels Like: 67 °F
Forecast: 49 / 78 °F
Wind: 7 mph from Northeast

Location: Bursa

Current Time: Oct 1, 2014 at 8:20:23 PM

Latest Report: Oct 1, 2014 at 7:00 PM


Visibility: 13 mi

Pressure: 30.18 "Hg

Humidity: 56%

Dew point: 50 °F

Location of BursaLocation

Historic Weather in Bursa — Graph

°F

Bursa temperature yesterday

Maximum temperature yesterday: 73 °F (at 4:00 PM)
Minimum temperature yesterday: 49 °F (at 7:00 AM)
Average temperature yesterday: 60 °F

Past Weeks' High & Low Weather Summary

 TemperatureHumidityPressure
High90 °F (Sep 23, 2:00 PM)100% (Sep 19, 6:00 AM)30.35 "Hg (Sep 19, 6:00 AM)
Low46 °F (Oct 1, 7:00 AM)40% (Sep 23, 2:00 PM)29.55 "Hg (Sep 23, 2:00 PM)
Average64 °F79%30.03 "Hg
* Reported Sep 16 7:00 PM — Oct 1 7:00 PM, Bursa, Weather by CustomWeather, © 2014

Note: Actual official high and low records may vary slightly from our data, if they occured in-between our weather recording intervals... More about our weather records

Advertising

Bursa weather history for previous 24 hours

 ConditionsComfort  
Time TempWeatherWind HumidityBarometerVisibility
7:00 PM
Oct 1
67 °FClear.7 mph56%30.18 "Hg12 mi
6:00 PM71 °FSunny.6 mph52%30.16 "Hg12 mi
5:00 PM73 °FSunny.8 mph45%30.17 "Hg9 mi
4:00 PM73 °FSunny.7 mph55%30.18 "Hg9 mi
3:00 PM73 °FSunny.2 mph50%30.18 "Hg9 mi
2:00 PM72 °FSunny.5 mph52%30.20 "Hg9 mi
1:00 PM69 °FSunny.2 mph54%30.22 "Hg9 mi
12:00 PM66 °FSunny.2 mph56%30.24 "Hg9 mi
11:00 AM63 °FSunny.2 mph64%30.24 "Hg9 mi
10:00 AM58 °FSunny.2 mph79%30.26 "Hg7 mi
9:00 AM56 °FSunny.No wind84%30.26 "Hg7 mi
8:00 AM49 °FSunny.No wind99%30.25 "Hg6 mi
7:00 AM46 °FSunny.1 mph100%30.25 "Hg9 mi
6:00 AM48 °FClear.1 mph99%30.24 "Hg9 mi
5:00 AM48 °FClear.No wind99%30.24 "Hg12 mi
4:00 AM49 °FClear.No wind98%30.24 "Hg12 mi
3:00 AM51 °FClear.2 mph99%30.24 "Hg12 mi
1:00 AM53 °FClear.1 mph93%30.24 "Hg12 mi
12:00 AM55 °FClear.1 mph92%30.24 "Hg12 mi
11:00 PM
Sep 30
56 °FClear.1 mph89%30.25 "Hg12 mi
10:00 PM58 °FClear.1 mph88%30.25 "Hg12 mi
9:00 PM61 °FClear.3 mph81%30.24 "Hg12 mi
8:00 PM62 °FClear.2 mph77%30.24 "Hg12 mi
Weather by CustomWeather, © 2014

See weather overviewHow to use our weather pages